Presure
260 263 251 235 251 262 232 255 202 187 260 252 211 204 202 213 191 182 177 241 183 232 184 205 198 206 216 202 216 212 228 235 238 239 231 219 276 279 288 287 284 293 295 283 284 281 285 284 319 268 290 263 260 246
407 412 391 405 405 410 409 427 205 303 175 201 238 222 250 205 261 216 214 192 187 204 205 229 197 201 234 237 225 236 253 313 313 306 239 303 286 299 299 298 293 285 246 291 280 276 267 316 277 277 263 256 246 240
405 387 259 366 388 393 400 398 358 280 289 292 259 241 237 243 245 210 229 262 210 258 233 235 230 239 240 230 246 235 243 317 286 296 310 290 283 302 293 290 296 261 292 244 257 261 264 272 257 271 263 256 245 232
432 396 350 354 346 362 368 371 282 270 386 321 290 367 323 272 283 264 275 278 230 235 242 302 253 246 266 245 319 319 326 323 315 319 314 305 307 290 286 292 287 273 253 274 279 269 264 266 275 260 254 243 232 233
434 437 442 439 376 443 433 344 312 349 360 363 363 371 302 276 363 378 374 360 354 333 348 326 300 325 321 350 295 340 296 325 320 314 313 312 306 287 290 294 285 274 288 283 289 268 273 268 256 251 243 237 256 289
403 404 417 423 431 435 444 447 342 348 346 348 339 337 346 351 354 348 376 362 372 364 353 336 336 330 324 338 312 322 302 338 336 317 258 313 312 312 311 300 365 287 301 294 281 277 261 260 245 244 291 296 286 324
369 372 373 374 406 400 412 414 414 417 419 421 426 362 341 327 324 331 344 344 356 347 342 346 343 314 350 312 297 330 337 334 329 328 319 312 318 332 345 364 341 287 291 299 292 312 302 259 305 351 342 333 326 322
361 350 348 352 358 370 384 374 398 379 384 385 381 378 356 355 338 321 321 325 344 338 335 342 327 331 325 334 340 335 334 336 337 337 334 329 332 328 318 304 304 311 305 295 294 330 339 339 337 334 333 328 317 307
341 328 341 340 341 349 344 379 379 377 382 359 369 369 357 341 347 333 346 337 335 332 329 330 318 306 319 283 332 314 315 327 332 325 315 304 287 282 287 291 290 292 327 333 332 327 317 309 301 293 285 280 275 266
334 329 322 329 322 341 340 334 343 348 351 353 354 350 371 331 354 335 328 308 314 313 321 316 321 320 324 318 250 251 255 260 273 259 264 272 274 279 283 338 324 322 318 311 305 298 289 282 276 272 266 265 264 262
336 321 317 341 337 329 289 302 333 338 341 344 342 329 326 312 311 311 312 308 318 321 317 317 309 302 255 249 251 257 256 266 264 264 319 363 345 349 346 333 311 302 296 290 284 281 276 273 268 264 268 266 267 269
330 331 335 325 323 323 319 349 350 340 309 318 297 297 293 294 302 285 304 307 304 304 299 288 266 253 254 254 257 261 263 265 346 344 337 320 314 300 294 291 287 284 281 278 276 272 267 265 268 271 296 320 327 326
315 314 314 316 316 315 318 319 323 328 312 281 308 299 303 302 358 271 291 286 287 283 273 267 262 256 259 261 262 312 326 318 319 306 290 299 292 286 284 283 281 276 273 269 269 274 313 320 320 312 307 307 308 310
299 296 295 296 295 295 294 294 293 292 286 290 294 298 293 299 307 274 301 265 265 263 264 267 272 285 308 308 294 292 296 311 313 294 299 311 313 313 313 312 313 312 310 308 307 306 307 306 305 307 309 309 307 308
284 286 282 284 285 286 287 287 287 288 284 286 287 290 293 300 300 301 303 302 302 304 304 307 309 299 303 306 304 308 307 307 304 305 306 303 302 303 303 304 305 305 304 304 305 304 303 306 309 316 321 325 335 336
278 277 277 277 274 272 274 278 279 278 278 277 281 281 280 280 281 284 283 283 284 285 288 290 288 288 292 293 293 296 300 301 302 302 302 300 300 298 298 298 298 297 296 303 317 325 324 323 326 329 332 336 334 338
269 259 268 268 270 272 273 268 265 267 267 266 266 271 273 276 277 275 275 278 278 282 284 284 288 291 295 292 291 292 291 292 293 295 295 297 299 305 311 313 312 320 322 325 320 317 334 330 327 329 335 346 325 374
260 267 268 264 255 260 274 271 272 275 274 270 269 271 273 275 270 271 276 281 283 283 284 281 285 285 287 286 284 287 289 293 301 320 325 330 335 335 331 328 337 336 332 315 318 320 317 331 370 378 328 379 397 384
258 257 259 260 261 261 261 260 259 259 266 272 268 267 270 270 273 275 276 280 283 285 282 280 280 280 287 296 322 341 344 348 327 320 326 333 336 331 327 333 331 317 320 320 390 465 442 412 410 415 392 379 371 368
261 262 262 265 268 268 256 257 254 287 281 283 282 268 268 262 275 279 282 283 285 288 291 307 379 378 376 372 361 331 331 334 323 307 307 394 444 509 467 481 419 420 467 473 463 459 447 410 387 376 371 371 339 379
257 262 263 271 259 272 282 282 282 284 298 289 304 307 390 298 279 278 278 321 370 366 362 360 352 345 338 326 310 299 340 450 460 465 468 492 509 534 555 455 450 458 452 456 424 396 381 373 370 327 331 407 417 434
261 267 269 270 275 282 281 279 288 310 317 385 375 365 362 363 382 381 378 374 371 369 320 326 324 324 368 403 435 436 433 428 420 422 420 423 422 436 452 452 446 445 396 379 374 367 365 318 325 373 402 448 470 492
261 276 279 276 288 298 309 301 352 375 364 371 383 376 377 374 368 367 368 383 396 397 390 389 389 419 422 418 410 412 422 397 401 404 416 425 423 434 441 394 372 365 363 358 364 310 311 315 366 435 457 472 499 462
278 286 292 301 305 311 375 370 374 364 353 345 339 335 342 401 395 390 388 390 382 384 376 420 418 398 389 387 386 388 385 393 403 423 438 414 382 365 356 354 351 349 360 317 302 305 307 309 326 356 361 375 495 498
293 304 309 369 378 382 358 340 339 380 389 401 397 392 389 386 379 377 370 369 365 413 408 395 387 389 394 398 403 409 414 410 381 368 355 345 344 344 341 340 346 357 304 293 300 304 303 313 311 313 303 302 303 303
377 380 373 345 337 344 381 391 390 387 382 387 503 395 361 360 360 355 356 381 398 387 384 383 381 381 383 381 369 358 350 344 340 336 334 332 332 328 336 348 340 295 290 297 298 302 305 305 298 290 297 295 296 293
342 347 361 357 355 326 329 361 377 365 361 396 371 343 348 351 356 377 393 382 372 371 365 362 362 357 343 338 335 332 328 325 321 323 323 325 323 336 340 332 291 282 293 293 299 290 291 279 283 287 198 280 283 279
325 330 348 351 384 373 369 366 354 348 375 357 340 345 330 362 387 374 367 362 358 356 354 351 339 329 325 322 320 320 321 318 316 316 317 327 338 343 322 290 287 288 291 293 283 289 286 279 256 267 215 160 274 262
369 371 365 367 370 363 354 345 338 375 361 347 335 331 329 373 365 357 351 351 345 343 342 329 323 320 317 316 316 316 317 314 306 311 323 334 328 341 286 287 285 286 287 278 288 292 286 277 274 268 267 254 263 263
359 376 369 363 353 339 329 332 357 373 365 343 333 323 369 360 352 348 342 340 333 328 321 318 315 313 311 312 311 314 319 312 306 308 315 335 334 291 283 283 278 279 277 279 298 289 289 277 276 264 265 262 258 251
370 352 342 328 327 331 350 348 357 370 369 340 329 352 363 348 344 337 335 332 330 319 315 314 310 305 313 316 314 316 318 319 314 306 321 329 332 281 278 279 271 273 275 278 291 284 279 275 275 261 263 260 258 255
333 331 330 331 343 351 332 339 352 369 372 336 324 380 360 344 340 331 329 322 320 317 311 308 308 313 307 308 309 309 309 307 309 315 315 333 327 277 279 275 268 271 271 277 285 281 275 272 274 268 267 262 255 254
339 342 341 340 327 322 327 331 339 357 377 333 320 381 361 343 335 325 320 316 317 315 308 305 313 308 305 305 305 304 303 304 312 318 310 324 305 274 278 272 268 266 270 277 283 282 287 286 279 275 268 268 264 262
Wind_Speed
147 158 154 137 156 161 151 160 152 141 145 136 155 154 148 141 151 146 125 135 137 136 132 124 126 120 118 115 120 121 139 140 142 136 128 119 116 113 97 91 85 83 77 75 77 79 73 70 71 58 53 48 47 47
73 71 78 78 80 80 80 76 119 137 108 152 128 150 150 148 149 144 133 144 136 139 147 138 131 118 136 141 130 140 136 100 100 97 125 99 99 91 86 81 80 74 79 72 71 69 67 65 58 55 52 49 48 49
65 69 92 74 69 70 69 70 94 134 134 134 132 125 122 126 139 155 123 140 129 139 141 143 136 145 140 125 134 116 118 92 97 95 92 95 91 84 81 76 74 76 71 72 73 67 65 62 57 56 53 52 50 51
37 49 66 65 68 65 63 61 91 97 66 91 97 73 103 115 116 97 128 128 123 128 138 96 120 122 121 129 93 88 85 86 87 88 88 86 84 81 78 75 71 68 74 76 69 65 61 61 62 55 53 53 53 55
17 20 22 29 49 36 39 59 67 59 59 58 59 59 86 97 66 64 59 61 68 78 74 80 87 84 82 76 85 76 82 84 84 81 81 79 78 77 74 73 67 72 72 70 68 62 60 58 58 56 54 54 57 57
6 8 10 13 16 20 22 25 54 54 54 54 54 54 56 57 55 56 53 55 56 59 64 66 64 69 75 71 76 74 76 69 71 77 71 80 79 77 75 68 52 70 66 65 63 60 58 57 56 57 59 58 55 47
20 17 11 7 4 8 13 16 20 22 24 26 28 44 50 52 54 51 44 44 50 53 56 55 62 63 54 68 70 65 63 63 66 66 67 67 66 66 59 50 54 64 64 62 60 57 56 56 53 44 44 46 47 47
28 23 19 15 12 8 8 12 13 17 19 21 24 29 40 43 48 48 47 47 43 47 52 51 52 53 56 54 52 53 55 55 55 55 54 57 56 56 52 55 58 56 54 55 56 50 46 43 42 41 41 42 43 44
26 21 18 16 16 15 10 16 14 14 17 23 23 25 31 37 36 39 32 36 40 44 46 46 49 52 50 58 48 51 52 51 51 50 51 51 51 54 54 52 53 54 46 44 44 44 44 44 43 42 42 41 42 42
21 20 19 20 15 9 7 12 15 14 14 18 21 23 20 31 28 28 31 39 42 44 42 44 42 43 44 46 51 51 51 52 50 53 54 50 53 58 50 45 45 45 44 45 44 43 43 43 43 43 43 43 44 46
21 17 12 16 17 14 15 15 14 17 16 15 18 20 24 26 27 29 32 36 34 35 38 39 42 45 47 49 50 51 52 50 50 54 42 30 35 39 38 40 44 46 45 44 45 44 44 44 44 45 46 46 47 49
18 15 15 14 13 11 12 7 14 13 14 14 20 22 25 26 27 33 31 32 35 37 39 44 47 46 47 48 50 51 51 51 31 29 35 40 45 46 46 45 45 45 45 45 45 45 45 47 48 48 48 49 49 49
24 24 24 23 20 17 16 14 14 13 11 18 12 16 17 23 14 33 32 35 37 40 43 45 46 46 49 51 52 40 34 37 38 42 48 49 48 47 47 47 46 45 45 46 47 48 47 47 47 46 47 49 50 51
25 22 19 17 15 13 12 11 11 11 13 13 12 12 18 17 15 33 22 39 40 42 45 47 47 47 38 41 47 49 47 42 40 47 48 43 43 43 43 44 45 45 45 46 47 47 47 47 47 48 49 50 50 51
16 15 13 12 10 9 8 6 6 6 10 12 14 14 15 14 16 18 20 23 26 28 30 31 31 40 39 39 42 42 43 43 44 45 45 46 47 48 49 48 47 47 47 48 48 47 47 47 48 52 52 51 51 52
12 10 8 7 7 7 7 7 8 10 13 15 16 17 20 22 24 25 29 31 35 37 38 40 42 44 45 46 47 48 48 49 48 48 49 49 49 49 48 48 48 48 48 50 52 50 48 48 49 50 51 49 47 47
6 7 4 5 5 7 8 12 15 17 19 22 24 26 28 29 30 34 37 39 41 43 44 46 46 47 47 47 48 48 48 47 48 48 48 49 49 51 52 53 52 53 53 53 49 45 50 48 46 46 47 46 41 40
8 7 9 11 14 15 15 17 18 20 22 24 28 30 31 34 38 41 42 44 45 46 47 46 47 47 47 46 45 47 49 50 52 56 57 58 56 54 53 53 54 53 51 46 45 47 44 43 42 39 40 35 28 29
11 13 14 15 17 18 19 23 26 27 31 33 35 38 41 43 44 45 46 47 47 48 46 44 44 47 49 54 55 55 55 55 54 54 55 54 52 50 48 48 48 45 45 44 37 26 27 29 26 21 24 26 28 30
16 18 20 22 24 25 27 30 32 34 34 37 41 44 44 39 47 48 49 49 51 52 52 54 46 46 46 47 48 49 50 49 48 48 50 44 40 38 38 35 32 31 25 22 16 15 13 15 17 20 23 26 17 28
22 25 26 28 27 31 35 34 36 37 44 42 43 43 41 46 47 47 47 45 37 38 38 39 40 41 42 43 45 46 44 31 30 28 27 26 29 30 29 15 16 14 11 10 13 12 12 13 14 6 6 23 23 24
30 34 34 34 38 41 39 38 42 51 42 43 39 37 35 34 32 31 32 32 32 32 39 38 39 38 35 29 23 21 21 20 17 14 11 9 8 6 4 5 9 13 18 13 11 8 7 11 7 8 11 13 11 7
36 45 46 43 50 53 57 49 53 46 42 38 34 33 31 31 31 30 29 25 21 20 22 22 23 19 17 15 12 12 11 9 7 6 3 1 5 8 14 23 21 18 15 13 10 22 19 17 9 2 3 3 4 13
49 54 55 58 56 58 50 46 40 38 37 35 34 34 32 23 22 20 18 16 17 16 17 14 11 9 8 7 5 3 2 1 1 3 8 21 27 25 22 19 18 17 15 30 27 25 25 25 26 27 30 34 18 17
57 60 57 51 44 38 40 40 39 33 29 26 24 21 19 17 15 14 13 13 12 9 5 4 2 1 1 2 4 6 10 17 26 28 26 22 21 20 19 19 17 18 34 31 30 31 31 33 35 39 39 40 43 45
46 42 38 41 41 40 34 28 25 23 20 17 8 10 10 9 8 9 8 6 1 2 4 7 9 10 13 18 25 26 26 25 24 22 20 19 18 19 18 17 25 37 34 33 33 34 36 37 37 35 39 42 44 46
41 39 37 35 30 34 33 24 18 16 14 10 7 8 7 6 5 2 4 6 9 11 14 17 20 25 26 25 24 24 23 22 19 18 17 16 17 16 18 27 38 35 35 35 36 36 38 37 36 36 22 40 43 44
38 37 31 29 15 17 16 15 12 11 8 6 6 4 4 3 6 8 10 12 14 16 19 24 29 25 24 23 21 20 19 18 18 16 15 13 14 15 31 39 37 36 36 36 35 38 40 40 35 36 24 15 42 36
20 17 16 13 11 11 11 11 10 9 5 4 4 4 2 7 9 12 13 16 20 22 25 29 26 25 22 20 19 17 17 16 17 16 14 14 19 18 40 39 37 37 37 35 37 40 41 41 41 41 38 33 36 35
12 8 8 7 8 9 10 11 11 8 3 3 3 3 7 9 12 15 18 21 25 26 26 25 23 21 18 17 15 13 14 15 16 16 14 13 19 42 41 40 38 36 35 35 40 40 42 41 42 39 39 37 36 34
4 5 6 8 9 11 10 10 9 7 3 4 3 6 11 12 15 18 20 23 25 26 23 22 17 14 14 14 14 13 14 15 17 18 13 16 24 42 41 40 38 36 36 36 40 40 41 41 41 38 39 39 37 34
8 8 8 8 8 6 6 9 9 7 3 6 6 12 14 16 19 21 22 23 24 24 19 16 14 15 15 14 15 17 17 18 17 17 20 17 30 43 42 41 39 38 36 37 39 39 38 38 40 40 39 38 37 36
8 7 7 6 5 6 7 7 8 7 2 6 7 15 18 19 23 24 23 22 22 21 18 16 16 16 16 17 18 18 18 18 17 20 26 25 39 43 42 41 39 38 37 38 38 39 39 41 41 41 40 39 39 38
Wind_Direction
257 257 255 252 257 260 249 252 244 256 257 258 244 249 254 254 259 268 273 269 273 270 273 264 269 266 275 272 281 280 284 285 284 284 286 289 285 285 285 285 287 284 284 286 285 286 289 292 291 287 286 282 280 278
251 251 252 253 253 253 253 253 260 253 264 257 257 251 264 256 264 255 257 266 271 265 268 273 268 267 278 281 280 282 279 274 273 275 284 279 281 282 282 282 282 283 285 284 284 286 285 287 287 284 282 277 274 275
248 250 250 252 253 254 253 251 252 255 254 255 256 254 258 261 264 260 259 267 263 268 270 270 274 276 276 279 278 278 282 271 277 277 275 277 280 279 281 281 281 281 282 282 281 280 284 284 282 282 279 277 276 277
249 251 251 251 251 250 251 251 252 253 247 252 251 250 257 258 258 262 260 259 265 268 268 260 269 270 269 276 269 267 269 269 272 273 273 275 276 278 280 280 281 280 276 278 277 278 279 281 280 278 277 276 277 278
244 248 250 249 250 246 244 247 249 247 246 246 247 248 252 254 249 252 253 251 251 253 254 256 258 259 262 261 266 265 268 268 268 270 272 274 276 277 281 283 281 278 279 277 279 278 278 277 277 277 276 276 278 276
195 216 229 233 234 232 225 219 244 244 244 245 245 246 245 247 249 251 246 249 248 248 250 252 254 254 255 258 264 265 269 268 268 272 274 277 278 278 279 280 276 277 278 277 275 277 277 276 275 277 278 278 276 265
124 115 117 150 134 201 203 202 206 209 212 214 218 237 241 242 243 248 249 245 242 245 249 249 250 254 254 258 262 263 264 266 268 270 273 275 274 273 274 278 274 273 276 278 278 277 277 277 276 269 265 264 265 264
117 121 120 112 109 99 139 178 184 195 200 201 204 212 228 231 237 241 243 244 241 243 247 250 254 256 257 259 260 263 264 265 267 270 271 272 274 275 276 272 273 274 275 276 277 275 274 273 271 270 268 266 266 267
136 177 131 126 113 96 132 106 132 160 165 199 200 208 219 227 225 232 227 231 237 240 244 248 251 255 257 258 260 262 265 267 269 271 272 273 277 276 274 275 277 278 277 274 271 271 271 271 272 272 272 271 270 270
140 153 151 141 154 87 140 153 148 156 162 172 181 200 197 220 211 218 226 239 242 248 249 253 253 254 255 258 264 267 269 271 271 270 273 276 274 272 276 274 276 274 273 273 272 272 272 272 272 271 270 270 270 271
130 133 129 131 150 158 208 200 167 165 165 178 196 206 212 223 232 236 237 242 243 246 250 250 251 255 258 260 264 267 267 271 273 274 271 267 263 265 269 270 272 273 273 273 273 273 272 272 271 271 272 271 271 271
128 124 117 110 112 122 126 172 165 171 190 188 212 219 225 229 232 237 239 240 243 246 249 251 254 258 261 264 267 269 272 273 272 264 265 267 268 272 272 271 271 272 273 273 273 272 271 271 271 272 275 278 277 276
110 106 105 106 111 116 118 118 115 109 157 221 207 224 232 236 237 243 243 247 249 251 254 257 259 262 265 267 269 267 268 267 267 269 268 268 271 271 271 272 272 272 271 271 271 271 275 276 277 278 278 276 275 275
107 112 115 115 120 126 134 144 155 167 197 203 209 215 231 236 239 246 249 252 254 256 258 259 261 263 263 264 266 267 268 267 268 268 269 271 272 273 274 274 274 275 275 275 275 274 274 275 276 276 274 274 275 276
116 115 120 121 124 129 136 145 166 188 215 220 228 233 239 247 250 252 256 258 261 263 264 266 269 265 269 271 271 272 271 272 271 270 272 273 272 272 273 275 276 276 276 275 275 275 276 277 277 279 279 278 280 280
119 127 135 146 172 194 206 214 224 233 240 245 249 250 253 255 257 260 260 260 260 261 263 264 264 266 268 271 273 274 275 274 274 275 273 273 273 274 275 276 276 275 274 276 278 279 280 280 278 278 278 280 280 280
120 212 187 218 232 240 238 244 250 253 254 256 258 258 259 259 259 260 260 261 262 264 265 267 269 271 273 275 275 276 276 277 276 275 275 274 274 275 276 276 276 275 275 275 278 282 281 278 279 279 279 279 278 276
235 243 240 248 261 269 274 269 276 279 275 267 265 264 265 263 261 263 267 269 270 272 273 275 277 278 279 279 279 278 278 278 279 276 276 275 275 275 274 274 273 271 271 275 279 278 277 278 276 276 278 274 266 266
282 279 282 284 280 279 278 275 272 271 272 269 266 265 265 266 268 270 273 274 275 275 278 280 280 280 279 278 272 272 273 273 274 277 276 276 275 274 273 271 270 273 274 275 271 269 266 268 262 251 261 267 270 273
280 282 283 284 284 279 273 273 273 292 278 277 270 268 270 278 275 276 277 279 279 278 277 273 275 274 274 275 275 273 274 275 275 277 278 282 284 285 280 277 268 267 262 263 255 249 229 235 252 262 269 272 268 278
287 288 289 295 280 290 296 294 291 289 298 282 289 285 291 274 277 279 280 277 278 277 276 276 275 275 274 273 274 275 278 287 290 295 293 290 285 283 284 253 254 252 225 213 180 203 229 245 260 220 260 279 280 280
294 298 296 295 298 300 296 289 294 302 294 300 298 295 292 289 286 283 280 279 279 278 275 274 275 276 280 286 291 291 290 292 296 298 294 288 274 265 233 185 169 158 153 168 179 193 208 145 127 282 297 284 281 270
295 302 302 299 303 303 304 302 304 303 301 299 297 294 292 288 285 283 282 282 282 282 282 283 285 292 293 297 299 303 301 286 289 288 286 226 130 132 130 135 143 147 151 150 156 141 130 122 99 64 72 84 125 141
300 302 302 302 302 302 303 303 303 303 301 298 294 291 290 285 282 280 282 283 282 283 285 295 299 291 289 298 293 284 251 233 138 118 118 120 129 135 138 140 140 138 145 138 138 132 128 122 114 109 106 106 99 116
300 299 300 301 302 302 302 303 303 305 306 305 299 291 283 276 276 276 277 280 283 295 296 292 297 323 19 58 82 96 105 112 119 126 134 137 139 139 137 136 142 144 140 141 138 134 130 124 123 118 119 121 119 119
300 301 301 301 301 302 305 309 314 316 316 314 354 303 290 283 278 279 281 283 197 123 115 113 110 108 108 112 117 121 127 131 136 139 140 137 136 137 139 145 143 143 144 144 141 135 132 132 130 130 131 128 127 126
299 300 300 301 302 303 304 310 322 323 322 345 330 307 304 298 291 269 142 136 131 129 131 127 123 126 129 131 134 137 141 143 138 136 133 134 137 143 144 146 145 148 147 146 141 137 132 133 130 135 145 135 133 134
299 299 297 297 301 306 313 321 324 321 337 325 311 316 293 313 128 130 131 131 130 132 133 137 139 141 143 146 150 151 151 144 135 134 136 136 139 147 147 146 148 150 150 148 147 142 140 138 140 142 156 186 141 144
297 296 295 297 305 312 318 319 319 339 320 304 298 295 262 137 135 132 130 133 137 137 143 148 153 154 156 156 156 156 154 143 138 136 132 137 144 148 150 150 154 154 154 153 151 149 147 146 147 146 148 155 148 149
299 294 298 308 317 318 311 315 330 335 283 262 260 260 157 149 138 140 143 147 152 153 158 162 164 165 163 161 156 156 156 151 151 144 139 144 151 154 153 155 157 158 157 155 154 154 154 153 154 154 154 157 157 158
312 322 323 315 316 321 332 335 336 332 254 215 213 179 166 155 149 153 156 157 159 167 169 173 170 158 167 165 153 148 148 153 158 154 151 152 157 158 159 160 162 163 162 160 159 160 160 159 162 163 162 163 164 166
326 328 327 323 330 335 343 349 349 341 243 195 193 182 175 164 158 163 164 168 173 176 177 172 166 165 154 154 147 145 145 144 147 154 154 154 162 164 165 166 167 168 167 165 164 165 168 168 168 169 171 172 171 172
332 332 331 333 340 343 344 347 354 350 303 201 193 191 183 172 167 170 173 175 175 177 173 166 165 157 154 157 157 157 158 157 160 162 163 163 166 169 170 172 173 172 172 172 171 170 170 171 174 174 176 180 181 181